Home   Weather   Corvallis   Past weeks

Flag for USA Past Weather in Corvallis, Oregon, USA — Yesterday and Last 2 Weeks

Now
32 °F

Chilly.


Feels Like: 32 °F
Forecast: 30 / 46 °F
Wind: No wind

Location: Corvallis Municipal

Current Time: Jan 17, 2017 at 9:27:43 am

Latest Report: Jan 17, 2017 at 8:55 am


Visibility: 8 mi

Pressure: 29.87 "Hg

Humidity: 87%

Dew Point: 28 °F

Location of CorvallisLocation

Past Weather in Corvallis — Graph

°F

Corvallis Temperature Yesterday

Maximum temperature yesterday: 39 °F (at 2:55 pm)
Minimum temperature yesterday: 25 °F (at 7:55 am)
Average temperature yesterday: 31 °F

High & Low Weather Summary for the Past Weeks

 TemperatureHumidityPressure
High43 °F (Jan 11, 3:35 pm)93% (Jan 2, 10:55 pm)30.44 "Hg (Jan 2, 10:55 pm)
Low16 °F (Jan 6, 4:35 am)38% (Jan 5, 12:15 pm)29.32 "Hg (Jan 10, 7:15 pm)
Average31 °F79%30.01 "Hg
* Reported Jan 2 8:15 am — Jan 17 8:15 am, Corvallis, Weather by CustomWeather, © 2017

Note: Actual official high and low records may vary slightly from our data, if they occured in-between our weather recording intervals... More about our weather records

Advertising

Corvallis Weather History for the Previous 24 Hours

Scroll right to see more
 ConditionsComfort  
Time TempWeatherWind HumidityBarometerVisibility
8:15 am
Tue, Jan 17
32 °FChilly.5 mph87%29.89 "Hg7 mi
7:55 am32 °FChilly.No wind87%29.88 "Hg9 mi
7:35 am32 °FChilly.No wind87%29.89 "Hg10 mi
6:55 am30 °FChilly.No wind93%29.91 "Hg10 mi
6:35 am30 °FChilly.No wind93%29.93 "Hg10 mi
5:55 am30 °FChilly.No wind93%29.94 "Hg10 mi
5:15 am30 °FChilly.No wind93%29.95 "Hg10 mi
4:55 am30 °FChilly.No wind93%29.98 "Hg10 mi
4:15 am30 °FChilly.No wind93%29.99 "Hg10 mi
3:55 am30 °FChilly.No wind86%29.99 "Hg10 mi
3:15 am30 °FChilly.No wind86%30.01 "Hg10 mi
2:55 am30 °FChilly.No wind86%30.02 "Hg10 mi
2:15 am30 °FChilly.No wind86%30.04 "Hg10 mi
1:55 am30 °FChilly.No wind86%30.04 "Hg10 mi
1:15 am28 °FChilly.No wind93%30.03 "Hg10 mi
12:55 am28 °FChilly.No wind86%30.04 "Hg10 mi
12:15 am28 °FChilly.3 mph93%30.04 "Hg10 mi
11:55 pm
Mon, Jan 16
28 °FChilly.No wind93%30.04 "Hg10 mi
11:15 pm28 °FChilly.3 mph93%30.05 "Hg10 mi
10:55 pm28 °FChilly.No wind86%30.05 "Hg10 mi
10:15 pm28 °FChilly.No wind93%30.07 "Hg10 mi
9:55 pm28 °FChilly.No wind93%30.07 "Hg10 mi
9:35 pm30 °FChilly.No wind86%30.08 "Hg10 mi
8:55 pm30 °FChilly.No wind86%30.09 "Hg10 mi
8:15 pm30 °FChilly.No wind86%30.09 "Hg10 mi
7:35 pm30 °FChilly.3 mph86%30.10 "Hg10 mi
6:55 pm30 °FChilly.No wind86%30.10 "Hg10 mi
6:15 pm30 °FChilly.3 mph86%30.11 "Hg10 mi
5:35 pm36 °FChilly.No wind65%30.10 "Hg10 mi
4:55 pm37 °FChilly.No wind65%30.12 "Hg10 mi
4:15 pm39 °FChilly.No wind61%30.13 "Hg10 mi
3:55 pm39 °FChilly.5 mph61%30.13 "Hg10 mi
3:15 pm39 °FChilly.5 mph61%30.13 "Hg10 mi
2:55 pm39 °FChilly.3 mph56%30.14 "Hg10 mi
2:15 pm37 °FChilly.No wind60%30.14 "Hg10 mi
1:55 pm36 °FChilly.No wind56%30.15 "Hg10 mi
1:15 pm34 °FChilly.No wind60%30.18 "Hg10 mi
12:55 pm36 °FChilly.No wind60%30.19 "Hg10 mi
12:15 pm36 °FChilly.No wind60%30.21 "Hg10 mi
11:55 am34 °FChilly.3 mph65%30.23 "Hg10 mi
11:35 am32 °FChilly.No wind64%30.25 "Hg10 mi
10:55 am32 °FChilly.3 mph64%30.25 "Hg10 mi
10:15 am30 °FChilly.No wind69%30.26 "Hg10 mi
9:55 am30 °FChilly.3 mph69%30.26 "Hg10 mi
9:35 am28 °FChilly.No wind80%30.25 "Hg10 mi
Weather by CustomWeather, © 2017

See weather overviewHow to use our weather pages